Terminal Aerodrome Forecast
Issued by NWS Mt. Holly, NJ

Home | Current Version | Previous Version | Text Only | Print | Product List | Glossary On
Versions: 1 2 3 4 5 6 7 8 9 10 11 12 13 14 15 16 17 18 19 20 21 22 23 24
000
FTUS41 KPHI 161730
TAFPHL
TAF
KPHL 161730Z 1618/1724 VRB03KT P6SM BKN060
     FM170300 VRB03KT 6SM -RA OVC025
     FM170700 33005KT 5SM -RASN OVC015
     FM170900 33006KT 2SM -SN OVC015
     FM171300 32008KT P6SM OVC016
     FM171500 31011KT P6SM BKN045=

USA.gov is the U.S. government's official web portal to all federal, state and local government web resources and services.